Location: Lowman
(44.0835°N, 115.6207°W)
Time: 18:40:06
(UTC+00:00)

Envisat - Pass Details

Date: 04 December 2022
Orbit: 763 x 765 km, 98.2° (Epoch: 29 January)

Event Time Altitude Azimuth Distance (km) Brightness Sun altitude
Rises 12:03:47 0° 12° (NNE) 3,243 6.4 -31.0°
Reaches altitude 10° 12:06:06 10° 12° (NNE) 2,312 5.6 -30.6°
Enters shadow 12:06:54 15° 12° (NNE) 1,995 5.2 -30.4°
